Wetterdaten: Woche 14.01.13 - 20.01.13 (KW3)
Datum Zeit Temperatur Luftfeuchte Luftdruck Niederschlag Windrichtung Sonnenschein Solar Wind
14.01.2013 00:00 -1,9 C 94 % 1012,0 hPa 0,0 l/m NO 0,00 h 0 W/m 4,4 km/h (1 Bft)
14.01.2013 01:00 -2,0 C 94 % 1011,8 hPa 0,0 l/m O-NO 0,00 h 0 W/m 4,7 km/h (1 Bft)
14.01.2013 02:00 -2,0 C 94 % 1011,5 hPa 0,0 l/m O-NO 0,00 h 0 W/m 4,4 km/h (1 Bft)
14.01.2013 03:00 -2,0 C 94 % 1011,6 hPa 0,0 l/m O-NO 0,00 h 0 W/m 3,6 km/h (1 Bft)
14.01.2013 04:00 -2,0 C 94 % 1011,4 hPa 0,0 l/m N 0,00 h 0 W/m 2,7 km/h (1 Bft)
14.01.2013 05:00 -2,0 C 94 % 1011,0 hPa 0,0 l/m O-NO 0,00 h 0 W/m 3,6 km/h (1 Bft)
14.01.2013 06:00 -2,1 C 95 % 1011,1 hPa 0,0 l/m O-NO 0,00 h 0 W/m 2,7 km/h (1 Bft)
14.01.2013 07:00 -2,1 C 95 % 1011,1 hPa 0,0 l/m O-NO 0,00 h 0 W/m 3,1 km/h (1 Bft)
14.01.2013 08:00 -2,0 C 95 % 1011,5 hPa 0,0 l/m N 0,00 h 9 W/m 2,7 km/h (1 Bft)
14.01.2013 09:00 -1,9 C 96 % 1011,8 hPa 0,0 l/m O-NO 0,00 h 15 W/m 2,4 km/h (1 Bft)
14.01.2013 10:00 -1,8 C 96 % 1012,0 hPa 0,0 l/m N 0,00 h 46 W/m 2,8 km/h (1 Bft)
14.01.2013 11:00 -1,4 C 96 % 1012,0 hPa 0,0 l/m O-NO 0,00 h 41 W/m 3,5 km/h (1 Bft)
14.01.2013 12:00 -1,3 C 95 % 1011,5 hPa 0,0 l/m NO 0,00 h 50 W/m 5,2 km/h (1 Bft)
14.01.2013 13:00 -1,1 C 91 % 1011,2 hPa 0,0 l/m N-NO 0,00 h 58 W/m 1,9 km/h (1 Bft)
14.01.2013 14:00 -0,8 C 90 % 1011,2 hPa 0,0 l/m N 0,00 h 49 W/m 1,1 km/h (0 Bft)
14.01.2013 15:00 -0,6 C 89 % 1011,5 hPa 0,0 l/m N 0,00 h 24 W/m 1,3 km/h (1 Bft)
14.01.2013 16:00 -0,6 C 90 % 1011,7 hPa 0,0 l/m N 0,00 h 9 W/m 0,8 km/h (0 Bft)
14.01.2013 17:00 -0,8 C 90 % 1011,8 hPa 0,0 l/m N 0,00 h 0 W/m 0,0 km/h (0 Bft)
14.01.2013 18:00 -0,8 C 92 % 1012,1 hPa 0,0 l/m N-NO 0,00 h 0 W/m 2,1 km/h (1 Bft)
14.01.2013 19:00 -1,0 C 92 % 1012,3 hPa 0,0 l/m N-NO 0,00 h 0 W/m 4,4 km/h (1 Bft)
14.01.2013 20:00 -1,2 C 93 % 1012,1 hPa 0,0 l/m N 0,00 h 0 W/m 1,6 km/h (1 Bft)
14.01.2013 21:00 -1,3 C 93 % 1012,0 hPa 0,0 l/m N 0,00 h 0 W/m 0,8 km/h (0 Bft)
14.01.2013 22:00 -1,4 C 92 % 1012,0 hPa 0,0 l/m N 0,00 h 0 W/m 0,5 km/h (0 Bft)
14.01.2013 23:00 -1,5 C 92 % 1011,5 hPa 0,0 l/m N 0,00 h 0 W/m 0,9 km/h (0 Bft)
15.01.2013 00:00 -1,6 C 92 % 1010,7 hPa 0,0 l/m N 0,00 h 0 W/m 0,4 km/h (0 Bft)
15.01.2013 01:00 -1,7 C 93 % 1010,0 hPa 0,0 l/m N 0,00 h 0 W/m 0,5 km/h (0 Bft)
15.01.2013 02:00 -2,0 C 93 % 1009,5 hPa 0,0 l/m N 0,00 h 0 W/m 0,3 km/h (0 Bft)
15.01.2013 03:00 -2,5 C 93 % 1008,9 hPa 0,0 l/m N 0,00 h 0 W/m 0,0 km/h (0 Bft)
15.01.2013 04:00 -2,6 C 94 % 1007,9 hPa 0,0 l/m N 0,00 h 0 W/m 2,3 km/h (1 Bft)
15.01.2013 05:00 -3,0 C 94 % 1007,1 hPa 0,0 l/m NO 0,00 h 0 W/m 1,6 km/h (1 Bft)
15.01.2013 06:00 -2,9 C 95 % 1006,3 hPa 0,0 l/m O-NO 0,00 h 0 W/m 4,8 km/h (1 Bft)
15.01.2013 07:00 -3,3 C 95 % 1005,6 hPa 0,0 l/m N 0,00 h 0 W/m 2,8 km/h (1 Bft)
15.01.2013 08:00 -3,3 C 95 % 1005,4 hPa 0,0 l/m N 0,00 h 19 W/m 1,5 km/h (1 Bft)
15.01.2013 09:00 -2,8 C 96 % 1005,2 hPa 0,0 l/m O-NO 0,17 h 87 W/m 1,3 km/h (1 Bft)
15.01.2013 10:00 -2,0 C 92 % 1005,2 hPa 0,0 l/m O-SO 0,83 h 179 W/m 8,2 km/h (2 Bft)
15.01.2013 11:00 -1,5 C 88 % 1005,3 hPa 0,0 l/m O 0,83 h 248 W/m 6,0 km/h (2 Bft)
15.01.2013 12:00 -0,6 C 84 % 1004,8 hPa 0,0 l/m O 0,83 h 297 W/m 5,1 km/h (1 Bft)
15.01.2013 13:00 -0,5 C 85 % 1004,3 hPa 0,0 l/m O-SO 0,25 h 151 W/m 5,1 km/h (1 Bft)
15.01.2013 14:00 -0,2 C 85 % 1004,6 hPa 0,0 l/m SW 0,00 h 78 W/m 6,3 km/h (2 Bft)
15.01.2013 15:00 0,0 C 88 % 1004,7 hPa 0,0 l/m S-SW 0,00 h 33 W/m 10,1 km/h (2 Bft)
15.01.2013 16:00 -0,1 C 87 % 1005,0 hPa 0,0 l/m SW 0,00 h 10 W/m 9,7 km/h (2 Bft)
15.01.2013 17:00 -0,2 C 86 % 1005,5 hPa 0,0 l/m W-SW 0,00 h 0 W/m 4,9 km/h (1 Bft)
15.01.2013 18:00 -0,4 C 85 % 1005,7 hPa 0,0 l/m W-SW 0,00 h 0 W/m 8,0 km/h (2 Bft)
15.01.2013 19:00 -0,7 C 89 % 1005,8 hPa 0,0 l/m W-SW 0,00 h 0 W/m 5,7 km/h (1 Bft)
15.01.2013 20:00 -1,1 C 91 % 1005,8 hPa 0,0 l/m W-SW 0,00 h 0 W/m 6,4 km/h (2 Bft)
15.01.2013 21:00 -1,3 C 94 % 1005,7 hPa 0,0 l/m S-SW 0,00 h 0 W/m 8,8 km/h (2 Bft)
15.01.2013 22:00 -1,5 C 95 % 1005,6 hPa 0,0 l/m SW 0,00 h 0 W/m 8,3 km/h (2 Bft)
15.01.2013 23:00 -1,7 C 95 % 1005,8 hPa 0,0 l/m SW 0,00 h 0 W/m 6,0 km/h (2 Bft)
16.01.2013 00:00 -1,7 C 95 % 1005,7 hPa 0,0 l/m SW 0,00 h 0 W/m 6,4 km/h (2 Bft)
16.01.2013 01:00 -1,6 C 95 % 1005,6 hPa 0,0 l/m SW 0,00 h 0 W/m 7,9 km/h (2 Bft)
16.01.2013 02:00 -1,5 C 95 % 1005,7 hPa 0,0 l/m S-SW 0,00 h 0 W/m 10,2 km/h (2 Bft)
16.01.2013 03:00 -1,7 C 95 % 1005,7 hPa 0,0 l/m SW 0,00 h 0 W/m 10,5 km/h (2 Bft)
16.01.2013 04:00 -1,8 C 91 % 1005,4 hPa 0,0 l/m W-SW 0,00 h 0 W/m 11,3 km/h (2 Bft)
16.01.2013 05:00 -1,8 C 89 % 1005,2 hPa 0,0 l/m W-SW 0,00 h 0 W/m 12,5 km/h (3 Bft)
16.01.2013 06:00 -2,0 C 89 % 1005,2 hPa 0,0 l/m W-SW 0,00 h 0 W/m 10,1 km/h (2 Bft)
16.01.2013 07:00 -2,2 C 90 % 1005,5 hPa 0,0 l/m W 0,00 h 0 W/m 5,7 km/h (1 Bft)
16.01.2013 08:00 -2,3 C 92 % 1005,9 hPa 0,6 l/m W 0,00 h 6 W/m 2,0 km/h (1 Bft)
16.01.2013 09:00 -2,6 C 93 % 1006,1 hPa 1,0 l/m W 0,00 h 28 W/m 3,6 km/h (1 Bft)
16.01.2013 10:00 -2,6 C 93 % 1006,2 hPa 0,2 l/m NW 0,00 h 27 W/m 4,1 km/h (1 Bft)
16.01.2013 11:00 -2,7 C 92 % 1006,2 hPa 0,0 l/m NW 0,00 h 44 W/m 3,7 km/h (1 Bft)
16.01.2013 12:00 -2,3 C 89 % 1005,8 hPa 0,0 l/m N-NW 0,00 h 60 W/m 5,9 km/h (2 Bft)
16.01.2013 13:00 -2,4 C 88 % 1005,3 hPa 0,0 l/m N 0,00 h 56 W/m 7,9 km/h (2 Bft)
16.01.2013 14:00 -2,8 C 86 % 1005,0 hPa 0,0 l/m N-NO 0,00 h 52 W/m 9,7 km/h (2 Bft)
16.01.2013 15:00 -3,0 C 85 % 1005,0 hPa 0,0 l/m N-NO 0,00 h 44 W/m 9,1 km/h (2 Bft)
16.01.2013 16:00 -3,3 C 86 % 1005,3 hPa 0,0 l/m N-NO 0,00 h 19 W/m 8,2 km/h (2 Bft)
16.01.2013 17:00 -3,9 C 88 % 1005,7 hPa 0,0 l/m N 0,00 h 0 W/m 7,9 km/h (2 Bft)
16.01.2013 18:00 -4,5 C 90 % 1006,3 hPa 0,2 l/m N 0,00 h 0 W/m 7,8 km/h (2 Bft)
16.01.2013 19:00 -4,7 C 91 % 1006,5 hPa 0,0 l/m N 0,00 h 0 W/m 7,6 km/h (2 Bft)
16.01.2013 20:00 -5,0 C 92 % 1006,8 hPa 0,0 l/m N 0,00 h 0 W/m 5,5 km/h (1 Bft)
16.01.2013 21:00 -5,1 C 92 % 1006,8 hPa 0,2 l/m N 0,00 h 0 W/m 4,7 km/h (1 Bft)
16.01.2013 22:00 -5,1 C 93 % 1006,9 hPa 0,2 l/m N 0,00 h 0 W/m 3,7 km/h (1 Bft)
16.01.2013 23:00 -5,1 C 93 % 1007,0 hPa 0,2 l/m N 0,00 h 0 W/m 3,6 km/h (1 Bft)
17.01.2013 00:00 -5,2 C 93 % 1007,3 hPa 0,0 l/m N 0,00 h 0 W/m 2,5 km/h (1 Bft)
17.01.2013 01:00 -5,2 C 93 % 1007,6 hPa 0,4 l/m N 0,00 h 0 W/m 1,9 km/h (1 Bft)
17.01.2013 02:00 -5,1 C 94 % 1007,9 hPa 0,2 l/m N 0,00 h 0 W/m 4,0 km/h (1 Bft)
17.01.2013 03:00 -5,0 C 94 % 1008,2 hPa 0,2 l/m N 0,00 h 0 W/m 2,5 km/h (1 Bft)
17.01.2013 04:00 -4,9 C 94 % 1008,4 hPa 0,2 l/m N 0,00 h 0 W/m 3,5 km/h (1 Bft)
17.01.2013 05:00 -4,8 C 94 % 1009,0 hPa 0,2 l/m N 0,00 h 0 W/m 3,1 km/h (1 Bft)
17.01.2013 06:00 -4,9 C 94 % 1009,5 hPa 0,0 l/m N 0,00 h 0 W/m 2,4 km/h (1 Bft)
17.01.2013 07:00 -4,9 C 94 % 1009,7 hPa 0,0 l/m N-NW 0,00 h 0 W/m 3,2 km/h (1 Bft)
17.01.2013 08:00 -4,8 C 94 % 1010,6 hPa 0,0 l/m N-NW 0,00 h 11 W/m 4,0 km/h (1 Bft)
17.01.2013 09:00 -4,7 C 94 % 1011,5 hPa 0,0 l/m N-NW 0,00 h 40 W/m 4,5 km/h (1 Bft)
17.01.2013 10:00 -4,2 C 93 % 1011,9 hPa 0,2 l/m N-NW 0,00 h 67 W/m 3,5 km/h (1 Bft)
17.01.2013 11:00 -3,6 C 92 % 1011,7 hPa 0,2 l/m N-NW 0,00 h 83 W/m 4,0 km/h (1 Bft)
17.01.2013 12:00 -3,5 C 91 % 1011,1 hPa 0,2 l/m N-NW 0,00 h 101 W/m 6,8 km/h (2 Bft)
17.01.2013 13:00 -3,6 C 90 % 1011,0 hPa 0,6 l/m NW 0,00 h 79 W/m 4,4 km/h (1 Bft)
17.01.2013 14:00 -3,6 C 91 % 1011,0 hPa 0,8 l/m NW 0,00 h 59 W/m 5,1 km/h (1 Bft)
17.01.2013 15:00 -3,7 C 91 % 1011,5 hPa 0,6 l/m N-NW 0,00 h 47 W/m 4,9 km/h (1 Bft)
17.01.2013 16:00 -4,1 C 91 % 1011,9 hPa 0,4 l/m NW 0,00 h 13 W/m 5,3 km/h (1 Bft)
17.01.2013 17:00 -4,6 C 92 % 1012,2 hPa 0,2 l/m N 0,00 h 0 W/m 2,5 km/h (1 Bft)
17.01.2013 18:00 -4,8 C 93 % 1012,6 hPa 0,4 l/m N 0,00 h 0 W/m 3,6 km/h (1 Bft)
17.01.2013 19:00 -4,9 C 93 % 1012,9 hPa 0,0 l/m N-NW 0,00 h 0 W/m 3,7 km/h (1 Bft)
17.01.2013 20:00 -5,0 C 94 % 1013,0 hPa 0,2 l/m N 0,00 h 0 W/m 1,7 km/h (1 Bft)
17.01.2013 21:00 -5,2 C 94 % 1013,0 hPa 0,0 l/m N 0,00 h 0 W/m 0,1 km/h (0 Bft)
17.01.2013 22:00 -5,5 C 94 % 1012,9 hPa 0,0 l/m N 0,00 h 0 W/m 0,1 km/h (0 Bft)
17.01.2013 23:00 -5,6 C 94 % 1012,6 hPa 0,2 l/m N 0,00 h 0 W/m 0,1 km/h (0 Bft)
18.01.2013 00:00 -6,4 C 93 % 1012,4 hPa 0,0 l/m N 0,00 h 0 W/m 0,0 km/h (0 Bft)
18.01.2013 01:00 -7,1 C 93 % 1012,3 hPa 0,0 l/m N 0,00 h 0 W/m 0,0 km/h (0 Bft)
18.01.2013 02:00 -6,7 C 94 % 1012,1 hPa 0,0 l/m N 0,00 h 0 W/m 0,0 km/h (0 Bft)
18.01.2013 03:00 -6,4 C 94 % 1011,8 hPa 0,0 l/m N 0,00 h 0 W/m 0,0 km/h (0 Bft)
18.01.2013 04:00 -6,0 C 95 % 1011,2 hPa 0,0 l/m N 0,00 h 0 W/m 0,0 km/h (0 Bft)
18.01.2013 05:00 -5,8 C 95 % 1010,7 hPa 0,0 l/m N 0,00 h 0 W/m 0,0 km/h (0 Bft)
18.01.2013 06:00 -5,8 C 95 % 1010,3 hPa 0,0 l/m N 0,00 h 0 W/m 0,8 km/h (0 Bft)
18.01.2013 07:00 -5,7 C 95 % 1010,1 hPa 0,0 l/m N 0,00 h 0 W/m 0,1 km/h (0 Bft)
18.01.2013 08:00 -5,6 C 95 % 1010,1 hPa 0,0 l/m N 0,00 h 10 W/m 0,0 km/h (0 Bft)
18.01.2013 09:00 -5,1 C 95 % 1010,1 hPa 0,0 l/m N 0,00 h 40 W/m 0,1 km/h (0 Bft)
18.01.2013 10:00 -4,3 C 95 % 1009,9 hPa 0,0 l/m N 0,00 h 73 W/m 2,0 km/h (1 Bft)
18.01.2013 11:00 -3,7 C 93 % 1009,0 hPa 0,0 l/m W-NW 0,00 h 73 W/m 4,5 km/h (1 Bft)
18.01.2013 12:00 -3,4 C 91 % 1008,3 hPa 0,0 l/m SO 0,00 h 77 W/m 4,3 km/h (1 Bft)
18.01.2013 13:00 -3,3 C 87 % 1007,3 hPa 0,0 l/m O-SO 0,00 h 66 W/m 5,7 km/h (1 Bft)
18.01.2013 14:00 -3,6 C 85 % 1006,6 hPa 0,0 l/m O-SO 0,00 h 58 W/m 8,3 km/h (2 Bft)
18.01.2013 15:00 -4,1 C 85 % 1006,1 hPa 0,0 l/m O 0,00 h 42 W/m 9,4 km/h (2 Bft)
18.01.2013 16:00 -4,3 C 86 % 1005,9 hPa 0,0 l/m O-SO 0,00 h 15 W/m 6,8 km/h (2 Bft)
18.01.2013 17:00 -4,7 C 87 % 1005,5 hPa 0,0 l/m O 0,00 h 0 W/m 8,0 km/h (2 Bft)
18.01.2013 18:00 -5,1 C 87 % 1004,9 hPa 0,0 l/m O 0,00 h 0 W/m 9,8 km/h (2 Bft)
18.01.2013 19:00 -5,3 C 88 % 1004,2 hPa 0,0 l/m O-SO 0,00 h 0 W/m 12,1 km/h (2 Bft)
18.01.2013 20:00 -5,5 C 88 % 1003,3 hPa 0,0 l/m O-SO 0,00 h 0 W/m 12,0 km/h (2 Bft)
18.01.2013 21:00 -5,7 C 89 % 1002,5 hPa 0,0 l/m O 0,00 h 0 W/m 12,5 km/h (3 Bft)
18.01.2013 22:00 -5,7 C 89 % 1001,9 hPa 0,0 l/m O 0,00 h 0 W/m 11,0 km/h (2 Bft)
18.01.2013 23:00 -5,7 C 90 % 1001,2 hPa 0,0 l/m O 0,00 h 0 W/m 9,8 km/h (2 Bft)
19.01.2013 00:00 -5,9 C 90 % 1000,7 hPa 0,0 l/m O-SO 0,00 h 0 W/m 12,1 km/h (2 Bft)
19.01.2013 01:00 -6,1 C 91 % 999,8 hPa 0,0 l/m O-SO 0,00 h 0 W/m 9,6 km/h (2 Bft)
19.01.2013 02:00 -6,2 C 91 % 999,4 hPa 0,0 l/m O 0,00 h 0 W/m 6,4 km/h (2 Bft)
19.01.2013 03:00 -6,1 C 92 % 998,8 hPa 0,0 l/m O 0,00 h 0 W/m 4,5 km/h (1 Bft)
19.01.2013 04:00 -6,1 C 92 % 998,0 hPa 0,0 l/m O-NO 0,00 h 0 W/m 9,0 km/h (2 Bft)
19.01.2013 05:00 -6,1 C 92 % 997,2 hPa 0,0 l/m O 0,00 h 0 W/m 7,1 km/h (2 Bft)
19.01.2013 06:00 -6,1 C 92 % 996,8 hPa 0,0 l/m O-NO 0,00 h 0 W/m 5,9 km/h (2 Bft)
19.01.2013 07:00 -5,9 C 92 % 996,8 hPa 0,0 l/m O-NO 0,00 h 0 W/m 4,7 km/h (1 Bft)
19.01.2013 08:00 -5,8 C 92 % 996,8 hPa 0,0 l/m O-NO 0,00 h 12 W/m 4,5 km/h (1 Bft)
19.01.2013 09:00 -5,5 C 92 % 996,5 hPa 0,0 l/m O-NO 0,00 h 38 W/m 4,5 km/h (1 Bft)
19.01.2013 10:00 -5,0 C 91 % 996,5 hPa 0,0 l/m O-NO 0,00 h 98 W/m 4,4 km/h (1 Bft)
19.01.2013 11:00 -4,0 C 89 % 996,2 hPa 0,0 l/m O-NO 0,00 h 146 W/m 6,5 km/h (2 Bft)
19.01.2013 12:00 -3,1 C 86 % 995,8 hPa 0,0 l/m NO 0,08 h 181 W/m 7,9 km/h (2 Bft)
19.01.2013 13:00 -2,6 C 84 % 995,1 hPa 0,0 l/m O-NO 0,00 h 141 W/m 7,3 km/h (2 Bft)
19.01.2013 14:00 -2,5 C 84 % 994,8 hPa 0,0 l/m O-NO 0,00 h 120 W/m 10,3 km/h (2 Bft)
19.01.2013 15:00 -2,7 C 85 % 994,6 hPa 0,0 l/m O-NO 0,00 h 52 W/m 10,5 km/h (2 Bft)
19.01.2013 16:00 -3,0 C 87 % 994,1 hPa 0,0 l/m O-NO 0,00 h 19 W/m 10,2 km/h (2 Bft)
19.01.2013 17:00 -3,4 C 89 % 994,0 hPa 0,0 l/m O-NO 0,00 h 0 W/m 9,8 km/h (2 Bft)
19.01.2013 18:00 -3,7 C 89 % 994,2 hPa 0,0 l/m O-NO 0,00 h 0 W/m 8,3 km/h (2 Bft)
19.01.2013 19:00 -4,2 C 90 % 994,2 hPa 0,0 l/m O-NO 0,00 h 0 W/m 9,9 km/h (2 Bft)
19.01.2013 20:00 -4,4 C 92 % 994,4 hPa 0,0 l/m NO 0,00 h 0 W/m 11,2 km/h (2 Bft)
19.01.2013 21:00 -4,3 C 92 % 994,5 hPa 0,0 l/m O-NO 0,00 h 0 W/m 12,1 km/h (2 Bft)
19.01.2013 22:00 -4,3 C 93 % 994,1 hPa 0,0 l/m O-NO 0,00 h 0 W/m 11,9 km/h (2 Bft)
19.01.2013 23:00 -4,5 C 93 % 993,6 hPa 0,0 l/m NO 0,00 h 0 W/m 11,2 km/h (2 Bft)
20.01.2013 00:00 -4,4 C 93 % 993,1 hPa 0,2 l/m NO 0,00 h 0 W/m 10,6 km/h (2 Bft)
20.01.2013 01:00 -3,9 C 94 % 992,9 hPa 0,6 l/m O-NO 0,00 h 0 W/m 12,6 km/h (3 Bft)
20.01.2013 02:00 -3,7 C 94 % 992,5 hPa 0,4 l/m NO 0,00 h 0 W/m 13,3 km/h (3 Bft)
20.01.2013 03:00 -3,6 C 94 % 992,0 hPa 0,0 l/m O-NO 0,00 h 0 W/m 9,5 km/h (2 Bft)
20.01.2013 04:00 -3,7 C 94 % 991,6 hPa 0,0 l/m O-NO 0,00 h 0 W/m 11,3 km/h (2 Bft)
20.01.2013 05:00 -3,8 C 94 % 991,5 hPa 0,0 l/m NO 0,00 h 0 W/m 10,2 km/h (2 Bft)
20.01.2013 06:00 -4,1 C 94 % 992,0 hPa 0,0 l/m NO 0,00 h 0 W/m 6,3 km/h (2 Bft)
20.01.2013 07:00 -4,4 C 94 % 991,9 hPa 0,0 l/m NO 0,00 h 0 W/m 9,0 km/h (2 Bft)
20.01.2013 08:00 -4,6 C 94 % 992,0 hPa 0,0 l/m NO 0,00 h 14 W/m 10,7 km/h (2 Bft)
20.01.2013 09:00 -4,7 C 94 % 992,1 hPa 0,0 l/m NO 0,00 h 39 W/m 12,9 km/h (3 Bft)
20.01.2013 10:00 -4,6 C 94 % 992,6 hPa 0,0 l/m NO 0,00 h 69 W/m 13,3 km/h (3 Bft)
20.01.2013 11:00 -4,5 C 93 % 993,3 hPa 0,0 l/m O-NO 0,00 h 69 W/m 8,4 km/h (2 Bft)
20.01.2013 12:00 -3,8 C 93 % 993,1 hPa 0,2 l/m NO 0,00 h 124 W/m 5,1 km/h (1 Bft)
20.01.2013 13:00 -3,1 C 92 % 993,0 hPa 0,2 l/m O-NO 0,00 h 89 W/m 3,1 km/h (1 Bft)
20.01.2013 14:00 -2,8 C 90 % 993,3 hPa 0,0 l/m N 0,00 h 77 W/m 1,6 km/h (1 Bft)
20.01.2013 15:00 -2,7 C 90 % 993,5 hPa 0,0 l/m O-NO 0,00 h 53 W/m 3,1 km/h (1 Bft)
20.01.2013 16:00 -3,1 C 90 % 994,0 hPa 0,0 l/m N 0,00 h 17 W/m 2,1 km/h (1 Bft)
20.01.2013 17:00 -3,6 C 91 % 994,0 hPa 0,0 l/m N 0,00 h 0 W/m 2,0 km/h (1 Bft)
20.01.2013 18:00 -3,9 C 92 % 994,0 hPa 0,0 l/m O-NO 0,00 h 0 W/m 3,2 km/h (1 Bft)
20.01.2013 19:00 -4,3 C 93 % 994,3 hPa 0,0 l/m N 0,00 h 0 W/m 2,1 km/h (1 Bft)
20.01.2013 20:00 -4,8 C 93 % 994,2 hPa 0,0 l/m N-NO 0,00 h 0 W/m 4,7 km/h (1 Bft)
20.01.2013 21:00 -5,5 C 93 % 994,4 hPa 0,0 l/m N 0,00 h 0 W/m 3,2 km/h (1 Bft)
20.01.2013 22:00 -6,0 C 94 % 994,9 hPa 0,0 l/m N-NW 0,00 h 0 W/m 5,9 km/h (2 Bft)
20.01.2013 23:00 -6,0 C 94 % 995,4 hPa 0,0 l/m N 0,00 h 0 W/m 2,1 km/h (1 Bft)
Min-Datum _ 18.01.13 15.01.13 20.01.13 - - - - 14.01.13
_ Min-Zeit 01:25 12:40 05:15 - - - - 00:20
Minimum _ -7,2 C 83 % 991,3 hPa - - - - 0,0 km/h (0 Bft)
Max-Datum _ 15.01.13 14.01.13 17.01.13 16.01.13 - 15.01.13 15.01.13 18.01.13
_ Max-Zeit 15:10 08:40 19:45 09:05 - 09:05 12:15 19:05
Maximum _ 0,1 C 96 % 1013,1 hPa 1,0 l/m - 0,08 h 388 W/m 17,7 km/h
O-SO (3 Bft)
Durchschnitt _ -3,5 C 92 % 1004,5 hPa #9,4 l/m O-NO #3:00 h 64 W/m 5,4 km/h (1 Bft)